Location: Newark
(23.0150°N, 109.5536°W)
Time: 11:04:19
(UTC+00:00)

LightSail 2 - Visible Passes

Search period start: 16 December 2019 00:00
Search period end: 26 December 2019 00:00
Orbit: 696 x 730 km, 24.0° (Epoch: 15 December)

Date Brightness Start Highest point End Pass type
(mag) Time Alt. Az. Time Alt. Az. Time Alt. Az.
20 Dec 8.0 12:56:06 10° S 12:57:38 11° SSE 12:59:11 10° SE visible
22 Dec 7.5 12:43:00 10° SSW 12:46:37 20° SSE 12:50:14 10° ESE visible
23 Dec 7.7 11:45:59 10° S 11:48:32 14° SSE 11:51:05 10° ESE visible
23 Dec 6.4 13:28:56 10° SW 13:33:41 41° SSE 13:38:28 10° E visible
24 Dec 6.7 12:31:07 10° SW 12:35:34 31° SSE 12:40:02 10° E visible
25 Dec 6.9 11:36:52 23° SSE 11:37:27 23° SSE 11:41:26 10° ESE visible
25 Dec 5.6 13:17:42 10° WSW 13:22:41 61° SSE 13:27:42 10° E visible
